Regional Weather Roundup
Issued by NWS

Home | Current Version | Previous Version | Text Only | Print | Product List | Glossary On
Versions: 1 2 3 4 5 6 7 8 9 10 11 12 13 14 15 16 17 18 19 20 21 22 23 24 25 26 27 28 29 30 31 32 33 34 35 36 37 38 39 40 41 42 43 44 45 46 47 48 49 50
000
ASUS43 KTOP 170259
RWRKS

WEATHER ROUNDUP FOR KANSAS
NATIONAL WEATHER SERVICE GOODLAND KS
1000 PM CDT MON OCT 16 2017

NOTE:  "FAIR" INDICATES FEW OR NO CLOUDS BELOW 12,000 FEET WITH NO
SIGNIFICANT WEATHER AND/OR OBSTRUCTIONS TO VISIBILITY.

KSZ001>006-013>018-027>032-041>047-170400-
NORTHWEST KANSAS

CITY           SKY/WX    TMP DP  RH WIND       PRES   REMARKS
GOODLAND       CLOUDY    54  33  45 SW9       30.15S
HAYS           PTCLDY    58  36  43 S10       30.16S
HILL CITY      PTCLDY    60  37  42 SW8       30.13S
RUSSELL        CLOUDY    56  40  55 S15       30.15S
$$

KSZ061>065-074>080-084>089-170400-
SOUTHWEST KANSAS

CITY           SKY/WX    TMP DP  RH WIND       PRES   REMARKS
DODGE CITY     CLOUDY    57  34  41 S15       30.19S
ELKHART          N/A     53  37  54 S9          N/A
GARDEN CITY    CLEAR     51  36  56 SE9       30.17S
GREAT BEND     PTCLDY    56  39  53 S15       30.19S
LIBERAL        CLEAR     49  37  63 S9        30.20S
$$

KSZ066>073-081>083-090>101-170400-
SOUTHEAST KANSAS

CITY           SKY/WX    TMP DP  RH WIND       PRES   REMARKS
CHANUTE        CLEAR     47  42  83 S5        30.29R
COFFEYVILLE    CLEAR     49  45  86 CALM      30.29S
HUTCHINSON     PTCLDY    54  42  64 S9        30.23F
MEDICINE LODGE   N/A     55  39  54 S8        30.23S
NEWTON         CLEAR     52  40  63 S10       30.25S
PARSONS        CLEAR     47  42  83 CALM      30.30S
WICHITA INTL   CLEAR     50  42  74 S9        30.25S
WICHITA JABRA  CLEAR     53  41  63 S9        30.26R
WINFIELD       CLEAR     52  44  74 SE6       30.28R
$$

KSZ007>012-019>026-033>040-048>060-102>105-170400-
NORTHEAST KANSAS

CITY           SKY/WX    TMP DP  RH WIND       PRES   REMARKS
CONCORDIA      CLEAR     58  40  51 S17G26    30.16S
EMPORIA        CLEAR     48  39  71 S10       30.26R
LAWRENCE       CLEAR     50  43  77 SE5       30.25R
MANHATTAN      CLEAR     57  41  55 SW9       30.21S
OLATHE IND     CLEAR     49  42  77 S7        30.27R
OLATHE EXE     CLEAR     52  41  66 S6        30.26S
SALINA         CLEAR     57  42  57 S12       30.21R
TOPEKA BILLARD CLEAR     56  42  59 S3        30.24R
TOPEKA FORBES  CLEAR     54  42  64 S6        30.24R
$$




USA.gov is the U.S. government's official web portal to all federal, state and local government web resources and services.